| time (UTC) | temp F | wind direction | speed MPH | gust MPH | rain 1hr in | rain 24hr in | rain mn in | humidity % | barometer mb |
| 20260903181517 | 58 | 300 | 0.0 | 0.0 | 0.00 | 0.37 | 0.02 | 90 | 1009.4 |
| 20260903180021 | 58 | 63 | 0.0 | 1.0 | 0.01 | 0.37 | 0.02 | 90 | 1009.2 |
| 20260903174515 | 57 | 61 | 0.0 | 1.0 | 0.01 | 0.37 | 0.02 | 90 | 1009.2 |
| 20260903173023 | 57 | 69 | 0.0 | 0.0 | 0.01 | 0.37 | 0.02 | 90 | 1009.1 |
| 20260903171512 | 57 | 31 | 0.0 | 0.0 | 0.01 | 0.37 | 0.02 | 88 | 1009.1 |
| 20260903170010 | 57 | 354 | 0.0 | 0.0 | 0.00 | 0.36 | 0.01 | 88 | 1008.8 |
| 20260903164510 | 57 | 60 | 0.0 | 1.0 | 0.00 | 0.36 | 0.01 | 88 | 1008.6 |
| 20260903163013 | 57 | 345 | 0.0 | 1.0 | 0.01 | 0.36 | 0.01 | 90 | 1008.5 |
| 20260903161507 | 57 | 236 | 0.0 | 0.0 | 0.01 | 0.36 | 0.01 | 91 | 1008.5 |
| 20260903160010 | 57 | 236 | 0.0 | 0.0 | 0.01 | 0.36 | 0.01 | 91 | 1008.5 |
| 20260903154506 | 57 | 236 | 0.0 | 0.0 | 0.01 | 0.36 | 0.01 | 89 | 1008.4 |
| 20260903153004 | 57 | 330 | 0.0 | 1.0 | 0.00 | 0.35 | 0.00 | 87 | 1008.2 |
| 20260903151502 | 57 | 70 | 0.0 | 1.0 | 0.00 | 0.35 | 0.00 | 88 | 1008.1 |
| 20260903150000 | 57 | 23 | 0.0 | 1.0 | 0.00 | 0.35 | 0.00 | 87 | 1007.9 |
| 20260903144600 | 57 | 339 | 0.0 | 2.0 | 0.00 | 0.35 | 0.00 | 89 | 1007.7 |
| 20260903143108 | 57 | 229 | 0.0 | 0.0 | 0.00 | 0.35 | 0.00 | 88 | 1007.7 |
| 20260903141557 | 57 | 52 | 0.0 | 1.0 | 0.00 | 0.35 | 0.00 | 88 | 1007.7 |
| 20260903140055 | 57 | 53 | 0.0 | 1.0 | 0.00 | 0.35 | 0.00 | 87 | 1007.5 |
| 20260903134606 | 57 | 58 | 0.0 | 2.0 | 0.00 | 0.36 | 0.00 | 86 | 1007.3 |
| 20260903133053 | 57 | 132 | 0.0 | 0.0 | 0.00 | 0.36 | 0.00 | 87 | 1007.1 |
| 20260903131554 | 57 | 165 | 0.0 | 0.0 | 0.00 | 0.36 | 0.00 | 86 | 1007.0 |
| 20260903130052 | 57 | 63 | 0.0 | 0.0 | 0.00 | 0.36 | 0.00 | 85 | 1006.9 |
| 20260903124548 | 57 | 44 | 0.0 | 0.0 | 0.00 | 0.36 | 0.00 | 86 | 1006.7 |
| 20260903123047 | 57 | 255 | 0.0 | 0.0 | 0.00 | 0.36 | 0.00 | 85 | 1006.7 |
| 20260903121546 | 57 | 18 | 0.0 | 0.0 | 0.00 | 0.36 | 0.00 | 86 | 1006.6 |
| 20260903120052 | 57 | 18 | 0.0 | 0.0 | 0.00 | 0.36 | 0.00 | 86 | 1006.5 |
| 20260903114544 | 58 | 337 | 0.0 | 0.0 | 0.00 | 0.36 | 0.00 | 84 | 1006.4 |
| 20260903113043 | 58 | 360 | 0.0 | 0.0 | 0.00 | 0.36 | 0.00 | 86 | 1006.3 |
| 20260903111542 | 59 | 173 | 0.0 | 0.0 | 0.00 | 0.36 | 0.00 | 81 | 1006.4 |
| 20260903110041 | 59 | 56 | 0.0 | 2.0 | 0.00 | 0.36 | 0.00 | 78 | 1006.2 |
| 20260903104544 | 58 | 70 | 0.0 | 3.0 | 0.00 | 0.36 | 0.00 | 85 | 1006.2 |
| 20260903103038 | 57 | 61 | 0.0 | 0.0 | 0.00 | 0.36 | 0.00 | 89 | 1006.1 |
| 20260903101537 | 59 | 71 | 0.0 | 5.0 | 0.00 | 0.36 | 0.00 | 81 | 1006.1 |
| 20260903100036 | 58 | 59 | 0.0 | 0.0 | 0.00 | 0.36 | 0.00 | 83 | 1006.1 |
| 20260903094540 | 58 | 54 | 0.0 | 2.0 | 0.00 | 0.36 | 0.00 | 82 | 1006.1 |
| 20260903093049 | 58 | 56 | 0.0 | 3.0 | 0.00 | 0.36 | 0.00 | 84 | 1006.1 |
| 20260903091534 | 58 | 46 | 0.0 | 2.0 | 0.00 | 0.36 | 0.00 | 85 | 1006.1 |
| 20260903090035 | 58 | 79 | 0.0 | 3.0 | 0.00 | 0.36 | 0.00 | 85 | 1006.1 |
| 20260903084529 | 58 | 59 | 0.0 | 2.0 | 0.00 | 0.36 | 0.00 | 87 | 1006.0 |
| 20260903083029 | 57 | 231 | 0.0 | 3.0 | 0.00 | 0.36 | 0.00 | 88 | 1006.1 |
| 20260903081539 | 57 | 67 | 0.0 | 0.0 | 0.00 | 0.36 | 0.00 | 89 | 1006.1 |
| 20260903080026 | 57 | 68 | 0.0 | 0.0 | 0.00 | 0.36 | 0.00 | 88 | 1006.0 |
| 20260903074524 | 57 | 68 | 0.0 | 1.0 | 0.00 | 0.36 | 0.00 | 89 | 1005.9 |
| 20260903073029 | 57 | 59 | 0.0 | 3.0 | 0.00 | 0.36 | 0.00 | 89 | 1005.8 |
| 20260903071521 | 57 | 51 | 0.0 | 1.0 | 0.00 | 0.36 | 0.00 | 90 | 1005.8 |
| 20260903070018 | 57 | 65 | 0.0 | 1.0 | 0.00 | 0.36 | 0.00 | 90 | 1005.6 |
| 20260903064517 | 57 | 63 | 0.0 | 1.0 | 0.00 | 0.36 | 0.36 | 91 | 1005.7 |
| 20260903063017 | 56 | 67 | 0.0 | 2.0 | 0.00 | 0.36 | 0.36 | 91 | 1005.6 |
| 20260903061517 | 56 | 158 | 0.0 | 0.0 | 0.00 | 0.36 | 0.36 | 92 | 1005.6 |
| 20260903060018 | 56 | 159 | 0.0 | 0.0 | 0.00 | 0.36 | 0.36 | 92 | 1005.4 |
| 20260903054515 | 56 | 176 | 0.0 | 0.0 | 0.00 | 0.36 | 0.36 | 92 | 1005.4 |
| 20260903053013 | 56 | 174 | 0.0 | 0.0 | 0.00 | 0.36 | 0.36 | 91 | 1005.3 |
| 20260903051511 | 57 | 74 | 0.0 | 0.0 | 0.00 | 0.36 | 0.36 | 91 | 1005.0 |
| 20260903050009 | 57 | 68 | 0.0 | 0.0 | 0.00 | 0.36 | 0.36 | 91 | 1004.8 |
| 20260903044507 | 57 | 70 | 0.0 | 0.0 | 0.04 | 0.36 | 0.36 | 91 | 1004.6 |
| 20260903043009 | 58 | 141 | 0.0 | 1.0 | 0.04 | 0.36 | 0.36 | 91 | 1004.1 |
| 20260903041509 | 58 | 78 | 0.0 | 3.0 | 0.04 | 0.36 | 0.36 | 91 | 1003.7 |
| 20260903040008 | 58 | 65 | 0.0 | 1.0 | 0.05 | 0.36 | 0.36 | 91 | 1003.6 |
| 20260903034505 | 58 | 72 | 0.0 | 4.0 | 0.02 | 0.32 | 0.32 | 91 | 1002.7 |
| 20260903033004 | 58 | 49 | 0.0 | 0.0 | 0.02 | 0.32 | 0.32 | 91 | 1002.6 |
| 20260903031513 | 58 | 49 | 0.0 | 1.0 | 0.02 | 0.32 | 0.32 | 91 | 1002.6 |
| 20260903030003 | 58 | 29 | 0.0 | 3.0 | 0.01 | 0.31 | 0.31 | 90 | 1002.6 |
| 20260903024503 | 58 | 208 | 0.0 | 1.0 | 0.02 | 0.30 | 0.30 | 91 | 1002.4 |
| 20260903023002 | 58 | 148 | 0.0 | 2.0 | 0.05 | 0.30 | 0.30 | 91 | 1002.4 |
| 20260903021503 | 58 | 46 | 0.0 | 2.0 | 0.07 | 0.30 | 0.30 | 91 | 1002.2 |
| 20260903020107 | 58 | 48 | 0.0 | 6.0 | 0.08 | 0.30 | 0.30 | 91 | 1002.1 |
| 20260903014601 | 58 | 63 | 0.0 | 1.0 | 0.07 | 0.28 | 0.28 | 90 | 1002.4 |
| 20260903013058 | 59 | 162 | 0.0 | 5.0 | 0.05 | 0.25 | 0.25 | 89 | 1002.4 |
| 20260903011559 | 59 | 10 | 1.0 | 7.0 | 0.04 | 0.23 | 0.23 | 88 | 1002.4 |
| 20260903010055 | 59 | 70 | 0.0 | 7.0 | 0.05 | 0.22 | 0.22 | 88 | 1002.5 |
| 20260903004554 | 59 | 87 | 0.0 | 3.0 | 0.10 | 0.21 | 0.21 | 89 | 1002.5 |
| 20260903003054 | 60 | 51 | 0.0 | 6.0 | 0.13 | 0.20 | 0.20 | 89 | 1002.5 |
| 20260903001552 | 60 | 25 | 0.0 | 1.0 | 0.13 | 0.19 | 0.19 | 91 | 1002.5 |
| 20260903000050 | 61 | 102 | 0.0 | 0.0 | 0.12 | 0.17 | 0.17 | 91 | 1002.5 |
| 20260902234549 | 62 | 103 | 0.0 | 0.0 | 0.06 | 0.11 | 0.11 | 89 | 1002.5 |
| 20260902233048 | 62 | 101 | 0.0 | 1.0 | 0.03 | 0.07 | 0.07 | 84 | 1002.2 |
| 20260902231557 | 63 | 47 | 0.0 | 2.0 | 0.02 | 0.06 | 0.06 | 82 | 1002.1 |
| 20260902230047 | 63 | 49 | 0.0 | 3.0 | 0.01 | 0.05 | 0.05 | 83 | 1002.1 |
| 20260902224546 | 63 | 46 | 0.0 | 2.0 | 0.01 | 0.05 | 0.05 | 84 | 1001.9 |
| 20260902223046 | 64 | 46 | 1.0 | 6.0 | 0.00 | 0.04 | 0.04 | 81 | 1001.8 |
| 20260902221552 | 63 | 1 | 0.0 | 2.0 | 0.01 | 0.04 | 0.04 | 85 | 1001.8 |
| 20260902220044 | 63 | 20 | 0.0 | 3.0 | 0.02 | 0.04 | 0.04 | 85 | 1002.1 |
| 20260902214545 | 63 | 53 | 0.0 | 1.0 | 0.03 | 0.04 | 0.04 | 86 | 1002.1 |
| 20260902213049 | 63 | 358 | 0.0 | 1.0 | 0.03 | 0.04 | 0.04 | 86 | 1002.3 |
| 20260902211539 | 63 | 54 | 0.0 | 2.0 | 0.02 | 0.03 | 0.03 | 84 | 1002.4 |
| 20260902210040 | 65 | 65 | 0.0 | 3.0 | 0.01 | 0.02 | 0.02 | 79 | 1002.3 |
| 20260902204538 | 66 | 331 | 1.0 | 6.0 | 0.00 | 0.01 | 0.01 | 72 | 1002.3 |
| 20260902203041 | 66 | 7 | 0.0 | 4.0 | 0.00 | 0.01 | 0.01 | 71 | 1002.4 |
| 20260902201535 | 66 | 52 | 0.0 | 1.0 | 0.00 | 0.01 | 0.01 | 72 | 1002.6 |
| 20260902201509 | 67 | 52 | 0.0 | 1.0 | 0.00 | 0.01 | 0.01 | 72 | 1002.6 |
| 20260902200033 | 67 | 297 | 0.0 | 2.0 | 0.00 | 0.01 | 0.01 | 71 | 1002.7 |
| 20260902194531 | 68 | 82 | 0.0 | 3.0 | 0.00 | 0.01 | 0.01 | 61 | 1002.8 |
| 20260902193029 | 67 | 64 | 0.0 | 1.0 | 0.00 | 0.01 | 0.01 | 62 | 1003.1 |
| 20260902191527 | 68 | 195 | 0.0 | 4.0 | 0.00 | 0.01 | 0.01 | 62 | 1003.2 |
| 20260902190027 | 68 | 110 | 0.0 | 4.0 | 0.00 | 0.01 | 0.01 | 61 | 1003.4 |
| 20260902184522 | 67 | 91 | 0.0 | 3.0 | 0.00 | 0.01 | 0.01 | 63 | 1003.5 |
| 20260902183022 | 67 | 95 | 1.0 | 6.0 | 0.00 | 0.01 | 0.01 | 64 | 1003.8 |